FLOCK 2E-11 (41574 NORAD) Tracking and Keplerian Element Data

This shows tracking and keplerian element data for the satellite.

Feedback or suggestion? Click here.




ElementValue
Catalog41574
NameFLOCK 2E-11
Epoch Orbit10062
Epoch Day62.82927663
Epoch Year2018
RAAN108.9826
Inclination51.5802
Eccentricity0.0002045
Argument of Perigee91.6097
Mean Anonmoly269.0366
Mean Motion16.3740281
Decay Rate0.08399169
L11 41574U 98067JY 18062.82927663 .08399169 12325-4 83007-3 0 9994
L22 41574 51.5802 108.9826 0002045 91.6097 269.0366 16.37402810100624

Live tracking and technical data element details for FLOCK 2E-11 (NORAD 41574). FLOCK 2E-11 can be tracked NOW for your location showing map with azimuth and elevation plus other details from your city location.

Track the satellite on the map from your city or location and see movement details for azimuth, elevation, latitude, longitude, range, height, and movement on the map or in text.







IsCatalogInMostPopularTable: catalog: 41574, numindb: 110
Update: records affected: 1



GetName: 41574 FLOCK 2E-11

Hit Count: updated at: Mon, 19 Nov 2018 14:01:27 GMT